EW5586 Weather Reports


Display with metric or nautical units.
time (UTC)temp
F
wind
direction
speed
MPH
gust
MPH
rain 1hr
in
rain 24hr
in
rain mn
in
humidity
%
barometer
mb
20260507145321 51 260 3.0 16.0 0.00 0.00 0.00 53 1010.4
20260507144820 51 307 3.0 9.0 0.00 0.00 0.00 54 1010.5
20260507144321 51 211 2.0 9.0 0.00 0.00 0.00 53 1010.4
20260507143817 50 234 2.0 10.0 0.00 0.00 0.00 54 1010.5
20260507143317 50 287 2.0 10.0 0.00 0.00 0.00 55 1010.5
20260507142817 49 223 2.0 8.0 0.00 0.00 0.00 57 1010.5
20260507141815 49 301 3.0 12.0 0.00 0.00 0.00 57 1010.5
20260507141313 49 9 4.0 12.0 0.00 0.00 0.00 58 1010.5
20260507140813 49 242 4.0 12.0 0.00 0.00 0.00 56 1010.5
20260507140311 49 229 2.0 11.0 0.00 0.00 0.00 58 1010.6
20260507135811 49 261 3.0 12.0 0.00 0.00 0.00 57 1010.5
20260507135309 49 243 2.0 12.0 0.00 0.00 0.00 57 1010.6
20260507134807 49 229 2.0 12.0 0.00 0.00 0.00 61 1010.5
20260507133803 48 228 2.0 9.0 0.00 0.00 0.00 58 1010.6
20260507133302 48 331 2.0 9.0 0.00 0.00 0.00 61 1010.6
20260507132802 47 350 2.0 9.0 0.00 0.00 0.00 60 1010.5
20260507132301 47 302 2.0 7.0 0.00 0.00 0.00 57 1010.6
20260507131800 46 240 3.0 12.0 0.00 0.00 0.00 59 1010.7
20260507131259 46 284 3.0 12.0 0.00 0.00 0.00 59 1010.7
20260507130759 46 234 2.0 10.0 0.00 0.00 0.00 61 1010.8
20260507130258 45 247 3.0 14.0 0.00 0.00 0.00 61 1010.7
20260507125759 45 355 3.0 14.0 0.00 0.00 0.00 59 1010.6
20260507125258 45 285 3.0 13.0 0.00 0.00 0.00 60 1010.7
20260507124759 44 160 3.0 11.0 0.00 0.00 0.00 62 1010.7
20260507124259 44 211 3.0 14.0 0.00 0.00 0.00 62 1010.6
20260507123759 44 216 3.0 14.0 0.00 0.00 0.00 62 1010.6
20260507123259 44 238 2.0 10.0 0.00 0.00 0.00 64 1010.7
20260507122758 43 243 2.0 8.0 0.00 0.00 0.00 65 1010.7
20260507122259 43 243 2.0 10.0 0.00 0.00 0.00 66 1010.7
20260507121258 42 202 1.0 5.0 0.00 0.00 0.00 67 1010.7
20260507120753 42 341 1.0 9.0 0.00 0.00 0.00 68 1010.7
20260507120246 42 236 2.0 9.0 0.00 0.00 0.00 69 1010.7
20260507115742 42 355 2.0 9.0 0.00 0.00 0.00 70 1010.7
20260507115236 42 291 2.0 9.0 0.00 0.00 0.00 70 1010.7
20260507114222 41 26 1.0 7.0 0.00 0.00 0.00 71 1010.6
20260507113716 40 239 1.0 4.0 0.00 0.00 0.00 72 1010.6
20260507113211 40 206 2.0 10.0 0.00 0.00 0.00 73 1010.6
20260507112705 40 218 3.0 10.0 0.00 0.00 0.00 73 1010.7
20260507112159 40 233 2.0 8.0 0.00 0.00 0.00 74 1010.6
20260507110147 38 216 3.0 11.0 0.00 0.00 0.00 76 1010.6
20260507104646 38 221 2.0 8.0 0.00 0.00 0.00 78 1010.4
20260507104147 38 210 3.0 9.0 0.00 0.00 0.00 78 1010.4
20260507103646 37 237 4.0 9.0 0.00 0.00 0.00 78 1010.2
20260507103148 37 0 3.0 8.0 0.00 0.00 0.00 79 1010.2
20260507101622 0 0.0 0.0 0.00 0.00 0.00 1010.0
20260507101036 0 0.0 0.0 0.00 0.00 0.00 1010.0
20260507100527 0 0.0 0.0 0.00 0.00 0.00 1010.0
20260507095942 0 0.0 0.0 0.00 0.00 0.00 1010.0
20260507095442 0 0.0 0.0 0.00 0.00 0.00 1009.9
20260507094932 0 0.0 0.0 0.00 0.00 0.00 1010.0
20260507094346 0 0.0 0.0 0.00 0.00 0.00 1010.0
20260507093837 0 0.0 0.0 0.00 0.00 0.00 1009.9
20260507093332 0 0.0 0.0 0.00 0.00 0.00 1009.9
20260507092748 0 0.0 0.0 0.00 0.00 0.00 1010.0
20260507091744 0 0.0 0.0 0.00 0.00 0.00 1009.8
20260507091243 0 0.0 0.0 0.00 0.00 0.00 1009.9
20260507090646 0 0.0 0.0 0.00 0.00 0.00 1009.8
20260507085638 0 0.0 0.0 0.00 0.00 0.00 1009.8
20260507085044 0 0.0 0.0 0.00 0.00 0.00 1009.8
20260507084038 0 0.0 0.0 0.00 0.00 0.00 1009.5
20260507083446 0 0.0 0.0 0.00 0.00 0.00 1009.5
20260507082947 0 0.0 0.0 0.00 0.00 0.00 1009.4
20260507082438 0 0.0 0.0 0.00 0.00 0.00 1009.4
20260507081845 0 0.0 0.0 0.00 0.00 0.00 1009.7
20260507081248 0 0.0 0.0 0.00 0.00 0.00 1009.7
20260507080746 0 0.0 0.0 0.00 0.00 0.00 1009.8
20260507080244 0 0.0 0.0 0.00 0.00 0.00 1009.8
20260507075739 0 0.0 0.0 0.00 0.00 0.00 1009.8
20260507075152 0 0.0 0.0 0.00 0.00 0.00 1009.7
20260507074646 0 0.0 0.0 0.00 0.00 0.00 1009.7
20260507074140 0 0.0 0.0 0.00 0.00 0.00 1009.4
20260507073545 0 0.0 0.0 0.00 0.00 0.00 1009.4
20260507072946 0 0.0 0.0 0.00 0.00 0.00 1009.3
20260507072352 0 0.0 0.0 0.00 0.00 0.00 1009.1
20260507071846 0 0.0 0.0 0.00 0.00 0.00 1009.0
20260507071340 0 0.0 0.0 0.00 0.00 0.00 1008.9
20260507070838 0 0.0 0.0 0.00 0.00 0.00 1008.9
20260507070242 0 0.0 0.0 0.00 0.00 0.00 1009.0
20260507065741 0 0.0 0.0 0.00 0.00 0.00 1009.1
20260507065238 0 0.0 0.0 0.00 0.00 0.00 1009.1
20260507064644 0 0.0 0.0 0.00 0.00 0.00 1009.0
20260507064140 0 0.0 0.0 0.00 0.00 0.00 1009.0
20260507063544 0 0.0 0.0 0.00 0.00 0.00 1009.1
20260507062542 0 0.0 0.0 0.00 0.00 0.00 1009.0
20260507061449 0 0.0 0.0 0.00 0.01 0.00 1008.9
20260507060949 0 0.0 0.0 0.00 0.01 0.00 1009.0
20260507055347 0 0.0 0.0 0.00 0.01 0.00 1009.1
20260507054838 0 0.0 0.0 0.00 0.01 0.00 1009.1
20260507054246 0 0.0 0.0 0.00 0.01 0.00 1009.1
20260507053740 0 0.0 0.0 0.00 0.01 0.00 1009.2
20260507052140 0 0.0 0.0 0.00 0.01 0.00 1009.2
20260507051636 0 0.0 0.0 0.00 0.01 0.00 1009.2
20260507050538 0 0.0 0.0 0.00 0.01 0.00 1009.2
20260507050038 0 0.0 0.0 0.00 0.01 0.00 1009.2
20260507045534 0 0.0 0.0 0.00 0.01 0.00 1009.2
20260507044942 0 0.0 0.0 0.00 0.01 0.00 1009.2
20260507044438 0 0.0 0.0 0.00 0.01 0.00 1009.2
20260507043929 0 0.0 0.0 0.00 0.01 0.00 1009.2
20260507043339 0 0.0 0.0 0.00 0.01 0.00 1009.1
20260507042818 0 0.0 0.0 0.00 0.01 0.00 1009.1
20260507041739 0 0.0 0.0 0.00 0.01 0.00 1009.0
20260507041148 0 0.0 0.0 0.00 0.01 0.00 1009.0
20260507040643 0 0.0 0.0 0.00 0.01 0.00 1009.2
20260507040140 0 0.0 0.0 0.00 0.01 0.00 1009.1
20260507035639 0 0.0 0.0 0.00 0.01 0.01 1009.1
20260507035136 0 0.0 0.0 0.00 0.01 0.01 1009.0
20260507034545 0 0.0 0.0 0.00 0.01 0.01 1009.1
20260507033536 0 0.0 0.0 0.00 0.01 0.01 1009.2
20260507032945 0 0.0 0.0 0.00 0.01 0.01 1009.2
20260507032445 0 0.0 0.0 0.00 0.01 0.01 1009.2
20260507031942 0 0.0 0.0 0.00 0.01 0.01 1009.2
20260507031343 0 0.0 0.0 0.00 0.01 0.01 1009.2
20260507030845 0 0.0 0.0 0.00 0.01 0.01 1009.2
20260507030344 0 0.0 0.0 0.00 0.01 0.01 1009.3
20260507025836 0 0.0 0.0 0.00 0.01 0.01 1009.4
20260507025243 0 0.0 0.0 0.00 0.01 0.01 1009.4
20260507024144 0 0.0 0.0 0.00 0.01 0.01 1009.4
20260507023639 0 0.0 0.0 0.00 0.01 0.01 1009.5
20260507022542 0 0.0 0.0 0.00 0.01 0.01 1009.3
20260507022028 0 0.0 0.0 0.00 0.01 0.01 1009.4
20260507020938 0 0.0 0.0 0.00 0.01 0.01 1009.5
20260507020342 0 0.0 0.0 0.00 0.01 0.01 1009.7
20260507015840 0 0.0 0.0 0.00 0.01 0.01 1009.7
20260507015334 0 0.0 0.0 0.00 0.01 0.01 1009.7
20260507014740 0 0.0 0.0 0.00 0.01 0.01 1009.7
20260507014148 0 0.0 0.0 0.00 0.01 0.01 1009.7
20260507013639 0 0.0 0.0 0.00 0.01 0.01 1009.7
20260507013045 0 0.0 0.0 0.00 0.02 0.01 1009.8
20260507011527 0 0.0 0.0 0.00 0.02 0.01 1009.5
20260507010430 0 0.0 0.0 0.00 0.02 0.01 1009.5
20260507005836 0 0.0 0.0 0.00 0.04 0.01 1009.4
20260507005249 0 0.0 0.0 0.00 0.04 0.01 1009.3
20260507004232 0 0.0 0.0 0.00 0.05 0.01 1009.4
20260507003638 0 0.0 0.0 0.00 0.05 0.01 1009.5
20260507003048 0 0.0 0.0 0.00 0.05 0.01 1009.4
20260507002530 0 0.0 0.0 0.00 0.05 0.01 1009.3
20260507001941 0 0.0 0.0 0.00 0.05 0.01 1009.3
20260507001346 0 0.0 0.0 0.00 0.05 0.01 1009.2
20260507000840 0 0.0 0.0 0.00 0.05 0.01 1009.0
20260506235738 0 0.0 0.0 0.00 0.06 0.01 1009.1
20260506235236 0 0.0 0.0 0.00 0.06 0.01 1009.0
20260506234734 0 0.0 0.0 0.00 0.06 0.01 1009.0
20260506234148 0 0.0 0.0 0.00 0.06 0.01 1009.0
20260506232639 0 0.0 0.0 0.00 0.08 0.01 1009.0
20260506232137 0 0.0 0.0 0.00 0.09 0.01 1008.9
20260506231542 0 0.0 0.0 0.00 0.09 0.01 1009.0
20260506230450 0 0.0 0.0 0.00 0.09 0.01 1008.9
20260506225943 0 0.0 0.0 0.00 0.09 0.01 1008.9
20260506225432 0 0.0 0.0 0.00 0.09 0.01 1008.8
20260506224843 0 0.0 0.0 0.00 0.09 0.01 1008.8
20260506224246 0 0.0 0.0 0.00 0.09 0.01 1008.7
20260506223146 0 0.0 0.0 0.00 0.09 0.01 1008.8
20260506222639 0 0.0 0.0 0.00 0.09 0.01 1008.8
20260506222045 0 0.0 0.0 0.00 0.09 0.01 1008.8
20260506221542 0 0.0 0.0 0.00 0.09 0.01 1008.7
20260506221040 0 0.0 0.0 0.00 0.09 0.01 1008.7
20260506220537 0 0.0 0.0 0.00 0.09 0.01 1008.7
20260506215944 0 0.0 0.0 0.00 0.09 0.01 1008.8
20260506215439 0 0.0 0.0 0.00 0.09 0.01 1008.8
20260506214845 0 0.0 0.0 0.00 0.09 0.01 1008.7
20260506214342 0 0.0 0.0 0.00 0.09 0.01 1008.7
20260506213838 0 0.0 0.0 0.00 0.09 0.01 1008.6
20260506212746 0 0.0 0.0 0.00 0.09 0.01 1008.7
20260506212246 0 0.0 0.0 0.00 0.09 0.01 1008.5
20260506211734 0 0.0 0.0 0.00 0.09 0.01 1008.5
20260506205618 0 0.0 0.0 0.00 0.09 0.01 1008.7
20260506205035 0 0.0 0.0 0.00 0.09 0.01 1008.7
20260506204536 0 0.0 0.0 0.00 0.09 0.01 1008.8
20260506203945 0 0.0 0.0 0.00 0.09 0.01 1008.8
20260506203443 0 0.0 0.0 0.00 0.09 0.01 1008.6
20260506202934 0 0.0 0.0 0.00 0.09 0.01 1008.5
20260506202338 0 0.0 0.0 0.00 0.09 0.01 1008.4
20260506201835 0 0.0 0.0 0.00 0.09 0.01 1008.5
20260506200245 0 0.0 0.0 0.00 0.09 0.01 1008.6
20260506195743 0 0.0 0.0 0.00 0.09 0.01 1008.5
20260506195153 0 0.0 0.0 0.00 0.09 0.01 1008.6
20260506194049 0 0.0 0.0 0.00 0.09 0.01 1008.6
20260506192446 0 0.0 0.0 0.00 0.09 0.01 1009.0
20260506191944 0 0.0 0.0 0.00 0.09 0.01 1008.9
20260506191436 0 0.0 0.0 0.00 0.09 0.01 1008.9
20260506190841 0 0.0 0.0 0.00 0.09 0.01 1008.8
20260506190247 0 0.0 0.0 0.00 0.09 0.01 1008.9
20260506184640 0 0.0 0.0 0.00 0.09 0.01 1008.9
20260506184046 0 0.0 0.0 0.00 0.09 0.01 1008.8
20260506183539 0 0.0 0.0 0.00 0.09 0.01 1008.8
20260506183037 0 0.0 0.0 0.00 0.09 0.01 1008.7
20260506182442 0 0.0 0.0 0.00 0.09 0.01 1008.7
20260506181940 0 0.0 0.0 0.00 0.09 0.01 1008.8
20260506180932 0 0.0 0.0 0.00 0.09 0.01 1009.0
20260506180337 0 0.0 0.0 0.00 0.09 0.01 1009.0
20260506175824 0 0.0 0.0 0.00 0.09 0.01 1008.9
20260506174153 0 0.0 0.0 0.00 0.09 0.01 1008.8
20260506173643 0 0.0 0.0 0.00 0.09 0.01 1008.8
20260506172539 0 0.0 0.0 0.00 0.09 0.01 1008.7
20260506171948 0 0.0 0.0 0.00 0.09 0.01 1008.7
20260506171445 0 0.0 0.0 0.00 0.09 0.01 1008.6
20260506170346 0 0.0 0.0 0.00 0.09 0.01 1008.8
20260506165835 0 0.0 0.0 0.00 0.09 0.01 1008.9
20260506165244 0 0.0 0.0 0.00 0.09 0.01 1009.0
20260506164650 0 0.0 0.0 0.00 0.09 0.01 1008.9
20260506164144 0 0.0 0.0 0.00 0.09 0.01 1008.9
20260506163641 0 0.0 0.0 0.00 0.09 0.01 1009.0
20260506163141 0 0.0 0.0 0.00 0.09 0.01 1009.2
20260506162545 0 0.0 0.0 0.00 0.09 0.01 1009.2
20260506162043 0 0.0 0.0 0.00 0.09 0.01 1009.2
20260506160948 0 0.0 0.0 0.00 0.09 0.01 1009.5
20260506160439 0 0.0 0.0 0.00 0.09 0.01 1009.9
20260506155847 0 0.0 0.0 0.00 0.09 0.01 1009.9
20260506155347 0 0.0 0.0 0.00 0.09 0.01 1009.8
20260506154837 0 0.0 0.0 0.00 0.09 0.01 1009.8
20260506153744 0 0.0 0.0 0.00 0.09 0.01 1009.8
20260506153240 0 0.0 0.0 0.00 0.09 0.01 1009.7
20260506152650 0 0.0 0.0 0.00 0.09 0.01 1009.5
20260506152146 0 0.0 0.0 0.00 0.09 0.01 1009.4
20260506151628 0 0.0 0.0 0.00 0.09 0.01 1009.5
20260506151043 0 0.0 0.0 0.00 0.09 0.01 1009.5
20260506150537 0 0.0 0.0 0.00 0.09 0.01 1009.8
20260506145947 0 0.0 0.0 0.00 0.09 0.01 1009.7